Time,TemperatureF,DewpointF,PressureIn,WindDirection,WindDirectionDegrees,WindSpeedMPH,WindSpeedGustMPH,Humidity,HourlyPrecipIn,Conditions,Clouds,dailyrainin,SoftwareType,DateUTC
2013-05-03 00:09:00,57.7,51.0,30.20,SE,129,0.0,1.0,79,0.00,,,0.00,weatherlink.com 1.10,2013-05-03 04:09:00,
2013-05-03 00:24:00,57.6,51.0,30.20,ENE,73,0.0,1.0,79,0.00,,,0.00,weatherlink.com 1.10,2013-05-03 04:24:00,
2013-05-03 00:39:00,56.8,51.0,30.20,NE,44,1.0,1.0,81,0.00,,,0.00,weatherlink.com 1.10,2013-05-03 04:39:00,
2013-05-03 00:54:00,55.7,51.0,30.20,NE,44,0.0,1.0,83,0.00,,,0.00,weatherlink.com 1.10,2013-05-03 04:54:00,
2013-05-03 01:09:00,56.6,51.0,30.20,SE,127,0.0,1.0,81,0.00,,,0.00,weatherlink.com 1.10,2013-05-03 05:09:00,
2013-05-03 01:24:00,56.9,51.0,30.19,ESE,103,0.0,1.0,80,0.00,,,0.00,weatherlink.com 1.10,2013-05-03 05:24:00,
2013-05-03 01:39:00,55.1,50.0,30.18,ESE,117,0.0,1.0,84,0.00,,,0.00,weatherlink.com 1.10,2013-05-03 05:39:00,
2013-05-03 01:54:00,53.9,50.0,30.18,ENE,75,0.0,1.0,86,0.00,,,0.00,weatherlink.com 1.10,2013-05-03 05:54:00,
2013-05-03 02:09:00,53.7,50.0,30.18,SE,131,0.0,1.0,87,0.00,,,0.00,weatherlink.com 1.10,2013-05-03 06:09:00,
2013-05-03 02:24:00,54.4,50.0,30.18,ENE,68,1.0,2.0,86,0.00,,,0.00,weatherlink.com 1.10,2013-05-03 06:24:00,
2013-05-03 02:39:00,54.0,50.0,30.17,NE,46,0.0,1.0,86,0.00,,,0.00,weatherlink.com 1.10,2013-05-03 06:39:00,
2013-05-03 02:54:00,53.9,50.0,30.17,East,99,0.0,2.0,86,0.00,,,0.00,weatherlink.com 1.10,2013-05-03 06:54:00,
2013-05-03 03:09:00,54.2,50.0,30.16,NE,56,0.0,1.0,86,0.00,,,0.00,weatherlink.com 1.10,2013-05-03 07:09:00,
2013-05-03 03:24:00,53.5,50.0,30.16,ENE,58,0.0,1.0,87,0.00,,,0.00,weatherlink.com 1.10,2013-05-03 07:24:00,
2013-05-03 03:39:00,52.5,49.0,30.16,NE,42,1.0,1.0,89,0.00,,,0.00,weatherlink.com 1.10,2013-05-03 07:39:00,
2013-05-03 03:54:00,51.4,49.0,30.16,NNE,13,0.0,2.0,91,0.00,,,0.00,weatherlink.com 1.10,2013-05-03 07:54:00,
2013-05-03 04:09:00,51.2,49.0,30.15,NNE,13,0.0,0.0,91,0.00,,,0.00,weatherlink.com 1.10,2013-05-03 08:09:00,
2013-05-03 04:24:00,51.2,49.0,30.16,ENE,70,2.0,2.0,92,0.00,,,0.00,weatherlink.com 1.10,2013-05-03 08:24:00,
2013-05-03 04:39:00,51.4,49.0,30.16,NE,54,0.0,1.0,92,0.00,,,0.00,weatherlink.com 1.10,2013-05-03 08:39:00,
2013-05-03 04:54:00,51.4,49.0,30.16,NE,44,1.0,1.0,91,0.00,,,0.00,weatherlink.com 1.10,2013-05-03 08:54:00,
2013-05-03 05:09:00,51.4,49.0,30.16,NE,37,2.0,2.0,91,0.00,,,0.00,weatherlink.com 1.10,2013-05-03 09:09:00,
2013-05-03 05:24:00,51.4,49.0,30.16,NE,39,1.0,2.0,90,0.00,,,0.00,weatherlink.com 1.10,2013-05-03 09:24:00,
2013-05-03 05:39:00,51.5,49.0,30.16,ENE,58,1.0,2.0,90,0.00,,,0.00,weatherlink.com 1.10,2013-05-03 09:39:00,
2013-05-03 05:54:00,51.8,48.0,30.16,NE,54,0.0,2.0,88,0.00,,,0.00,weatherlink.com 1.10,2013-05-03 09:54:00,
2013-05-03 06:09:00,51.5,48.0,30.16,NE,48,1.0,2.0,89,0.00,,,0.00,weatherlink.com 1.10,2013-05-03 10:09:00,
2013-05-03 06:24:00,50.6,48.0,30.16,NE,37,1.0,1.0,90,0.00,,,0.00,weatherlink.com 1.10,2013-05-03 10:24:00,
2013-05-03 06:39:00,50.0,48.0,30.16,NE,37,1.0,1.0,91,0.00,,,0.00,weatherlink.com 1.10,2013-05-03 10:39:00,
2013-05-03 06:54:00,49.7,48.0,30.17,NNE,27,1.0,1.0,92,0.00,,,0.00,weatherlink.com 1.10,2013-05-03 10:54:00,
2013-05-03 07:09:00,49.9,48.0,30.17,NE,37,1.0,2.0,93,0.00,,,0.00,weatherlink.com 1.10,2013-05-03 11:09:00,
2013-05-03 07:24:00,50.5,48.0,30.17,NE,39,1.0,2.0,92,0.00,,,0.00,weatherlink.com 1.10,2013-05-03 11:24:00,
2013-05-03 07:39:00,51.8,49.0,30.17,NNE,25,1.0,3.0,89,0.00,,,0.00,weatherlink.com 1.10,2013-05-03 11:39:00,
2013-05-03 07:54:00,52.6,49.0,30.17,NNE,21,2.0,5.0,87,0.00,,,0.00,weatherlink.com 1.10,2013-05-03 11:54:00,
2013-05-03 08:09:00,53.2,49.0,30.17,ENE,64,0.0,4.0,86,0.00,,,0.00,weatherlink.com 1.10,2013-05-03 12:09:00,
2013-05-03 08:24:00,54.0,50.0,30.18,NNW,347,2.0,5.0,85,0.00,,,0.00,weatherlink.com 1.10,2013-05-03 12:24:00,
2013-05-03 08:39:00,54.6,50.0,30.17,NNE,16,0.0,2.0,85,0.00,,,0.00,weatherlink.com 1.10,2013-05-03 12:39:00,
2013-05-03 09:09:00,56.8,50.0,30.17,SSE,165,5.0,5.0,79,0.00,,,0.00,weatherlink.com 1.10,2013-05-03 13:09:00,
2013-05-03 09:40:00,59.6,51.0,30.17,SSE,161,2.0,8.0,73,0.00,,,0.00,weatherlink.com 1.10,2013-05-03 13:40:00,
2013-05-03 09:55:00,61.1,51.0,30.16,SE,131,2.0,14.0,70,0.00,,,0.00,weatherlink.com 1.10,2013-05-03 13:55:00,
2013-05-03 10:10:00,62.7,51.0,30.16,SSW,200,4.0,10.0,66,0.00,,,0.00,weatherlink.com 1.10,2013-05-03 14:10:00,
2013-05-03 10:25:00,63.2,51.0,30.16,SSE,162,2.0,13.0,65,0.00,,,0.00,weatherlink.com 1.10,2013-05-03 14:25:00,
2013-05-03 10:40:00,64.1,52.0,30.16,WSW,252,3.0,10.0,65,0.00,,,0.00,weatherlink.com 1.10,2013-05-03 14:40:00,
2013-05-03 10:55:00,64.0,51.0,30.15,ESE,117,0.0,6.0,64,0.00,,,0.00,weatherlink.com 1.10,2013-05-03 14:55:00,
2013-05-03 11:10:00,64.0,50.0,30.15,SSE,156,4.0,9.0,61,0.00,,,0.00,weatherlink.com 1.10,2013-05-03 15:10:00,
2013-05-03 11:25:00,63.9,50.0,30.16,SSE,163,0.0,11.0,60,0.00,,,0.00,weatherlink.com 1.10,2013-05-03 15:25:00,
2013-05-03 11:40:00,63.2,46.0,30.16,ESE,122,4.0,16.0,54,0.00,,,0.00,weatherlink.com 1.10,2013-05-03 15:40:00,
2013-05-03 11:55:00,63.8,47.0,30.16,SE,140,4.0,8.0,55,0.00,,,0.00,weatherlink.com 1.10,2013-05-03 15:55:00,
2013-05-03 12:10:00,63.9,49.0,30.16,East,90,0.0,11.0,59,0.00,,,0.00,weatherlink.com 1.10,2013-05-03 16:10:00,
2013-05-03 12:25:00,64.0,44.0,30.15,SW,231,1.0,14.0,48,0.00,,,0.00,weatherlink.com 1.10,2013-05-03 16:25:00,
2013-05-03 12:40:00,64.4,42.0,30.14,SE,143,5.0,14.0,45,0.00,,,0.00,weatherlink.com 1.10,2013-05-03 16:40:00,
2013-05-03 12:55:00,65.3,41.0,30.14,SSE,160,1.0,13.0,41,0.00,,,0.00,weatherlink.com 1.10,2013-05-03 16:55:00,
2013-05-03 13:10:00,66.5,43.0,30.13,ENE,67,2.0,14.0,42,0.00,,,0.00,weatherlink.com 1.10,2013-05-03 17:10:00,
2013-05-03 13:25:00,66.6,39.0,30.13,SSW,194,4.0,15.0,37,0.00,,,0.00,weatherlink.com 1.10,2013-05-03 17:25:00,
2013-05-03 13:40:00,66.8,40.0,30.12,SE,127,2.0,11.0,38,0.00,,,0.00,weatherlink.com 1.10,2013-05-03 17:40:00,
2013-05-03 13:55:00,66.8,40.0,30.12,SW,226,9.0,11.0,38,0.00,,,0.00,weatherlink.com 1.10,2013-05-03 17:55:00,
2013-05-03 14:10:00,67.0,39.0,30.12,SSE,156,2.0,8.0,36,0.00,,,0.00,weatherlink.com 1.10,2013-05-03 18:10:00,
2013-05-03 14:25:00,68.6,39.0,30.11,South,169,6.0,11.0,34,0.00,,,0.00,weatherlink.com 1.10,2013-05-03 18:25:00,
2013-05-03 14:40:00,68.4,36.0,30.11,SSE,150,7.0,19.0,30,0.00,,,0.00,weatherlink.com 1.10,2013-05-03 18:40:00,
2013-05-03 14:55:00,68.3,37.0,30.10,SSW,193,3.0,8.0,32,0.00,,,0.00,weatherlink.com 1.10,2013-05-03 18:55:00,
2013-05-03 15:11:00,68.0,36.0,30.10,SSE,150,2.0,10.0,31,0.00,,,0.00,weatherlink.com 1.10,2013-05-03 19:11:00,
2013-05-03 15:25:00,67.7,36.0,30.10,SSE,164,5.0,19.0,31,0.00,,,0.00,weatherlink.com 1.10,2013-05-03 19:25:00,
2013-05-03 15:40:00,67.7,35.0,30.09,SSW,201,6.0,15.0,30,0.00,,,0.00,weatherlink.com 1.10,2013-05-03 19:40:00,
2013-05-03 15:55:00,67.7,36.0,30.09,North,11,0.0,14.0,31,0.00,,,0.00,weatherlink.com 1.10,2013-05-03 19:55:00,
2013-05-03 16:10:00,67.3,36.0,30.09,East,82,3.0,7.0,32,0.00,,,0.00,weatherlink.com 1.10,2013-05-03 20:10:00,
2013-05-03 16:25:00,67.1,34.0,30.09,SW,221,5.0,16.0,29,0.00,,,0.00,weatherlink.com 1.10,2013-05-03 20:25:00,
2013-05-03 16:40:00,67.0,36.0,30.09,ENE,58,3.0,11.0,32,0.00,,,0.00,weatherlink.com 1.10,2013-05-03 20:40:00,
2013-05-03 16:55:00,67.1,36.0,30.09,SSW,198,3.0,12.0,32,0.00,,,0.00,weatherlink.com 1.10,2013-05-03 20:55:00,
2013-05-03 17:10:00,67.0,36.0,30.09,SE,128,6.0,10.0,32,0.00,,,0.00,weatherlink.com 1.10,2013-05-03 21:10:00,
2013-05-03 17:25:00,66.8,33.0,30.10,SSE,149,7.0,11.0,29,0.00,,,0.00,weatherlink.com 1.10,2013-05-03 21:25:00,
2013-05-03 17:40:00,66.2,35.0,30.09,South,169,5.0,12.0,31,0.00,,,0.00,weatherlink.com 1.10,2013-05-03 21:40:00,
2013-05-03 17:56:00,65.8,33.0,30.09,SE,136,6.0,16.0,30,0.00,,,0.00,weatherlink.com 1.10,2013-05-03 21:56:00,
2013-05-03 18:10:00,65.6,36.0,30.09,SE,142,1.0,13.0,33,0.00,,,0.00,weatherlink.com 1.10,2013-05-03 22:10:00,
2013-05-03 18:25:00,65.9,37.0,30.09,SE,126,0.0,10.0,34,0.00,,,0.00,weatherlink.com 1.10,2013-05-03 22:25:00,
2013-05-03 18:41:00,65.5,37.0,30.09,East,96,1.0,8.0,35,0.00,,,0.00,weatherlink.com 1.10,2013-05-03 22:41:00,
2013-05-03 18:56:00,64.7,38.0,30.09,ESE,102,0.0,4.0,37,0.00,,,0.00,weatherlink.com 1.10,2013-05-03 22:56:00,
2013-05-03 19:11:00,64.2,37.0,30.09,South,170,5.0,7.0,36,0.00,,,0.00,weatherlink.com 1.10,2013-05-03 23:11:00,
2013-05-03 19:26:00,64.0,35.0,30.09,ENE,78,0.0,10.0,34,0.00,,,0.00,weatherlink.com 1.10,2013-05-03 23:26:00,
2013-05-03 19:41:00,63.5,36.0,30.09,NW,313,0.0,14.0,36,0.00,,,0.00,weatherlink.com 1.10,2013-05-03 23:41:00,
2013-05-03 19:56:00,62.8,37.0,30.10,SSE,157,0.0,8.0,38,0.00,,,0.00,weatherlink.com 1.10,2013-05-03 23:56:00,
2013-05-03 20:11:00,62.4,38.0,30.10,SSE,167,7.0,16.0,40,0.00,,,0.00,weatherlink.com 1.10,2013-05-04 00:11:00,
2013-05-03 20:26:00,61.8,38.0,30.10,SE,143,0.0,8.0,42,0.00,,,0.00,weatherlink.com 1.10,2013-05-04 00:26:00,
2013-05-03 20:41:00,61.1,40.0,30.11,SE,138,4.0,10.0,46,0.00,,,0.00,weatherlink.com 1.10,2013-05-04 00:41:00,
2013-05-03 20:56:00,60.7,41.0,30.11,NNW,346,2.0,10.0,49,0.00,,,0.00,weatherlink.com 1.10,2013-05-04 00:56:00,
2013-05-03 21:11:00,60.2,42.0,30.11,ESE,108,8.0,10.0,51,0.00,,,0.00,weatherlink.com 1.10,2013-05-04 01:11:00,
2013-05-03 21:26:00,59.8,42.0,30.11,South,191,2.0,8.0,53,0.00,,,0.00,weatherlink.com 1.10,2013-05-04 01:26:00,
2013-05-03 21:41:00,59.5,44.0,30.11,SE,131,5.0,9.0,56,0.00,,,0.00,weatherlink.com 1.10,2013-05-04 01:41:00,
2013-05-03 21:56:00,59.3,44.0,30.11,SSE,149,1.0,7.0,57,0.00,,,0.00,weatherlink.com 1.10,2013-05-04 01:56:00,
2013-05-03 22:11:00,59.2,44.0,30.11,SE,138,0.0,12.0,58,0.00,,,0.00,weatherlink.com 1.10,2013-05-04 02:11:00,
2013-05-03 22:26:00,59.3,44.0,30.11,SE,134,1.0,12.0,58,0.00,,,0.00,weatherlink.com 1.10,2013-05-04 02:26:00,
2013-05-03 22:41:00,59.0,44.0,30.11,ENE,78,4.0,12.0,59,0.00,,,0.00,weatherlink.com 1.10,2013-05-04 02:41:00,
2013-05-03 22:56:00,58.8,45.0,30.10,SSE,163,1.0,9.0,60,0.00,,,0.00,weatherlink.com 1.10,2013-05-04 02:56:00,
2013-05-03 23:11:00,58.5,45.0,30.10,East,95,4.0,11.0,61,0.00,,,0.00,weatherlink.com 1.10,2013-05-04 03:11:00,
2013-05-03 23:26:00,57.9,45.0,30.09,ESE,118,1.0,4.0,62,0.00,,,0.00,weatherlink.com 1.10,2013-05-04 03:26:00,
2013-05-03 23:41:00,57.7,45.0,30.09,NNE,26,0.0,5.0,62,0.00,,,0.00,weatherlink.com 1.10,2013-05-04 03:41:00,
2013-05-03 23:56:00,57.5,45.0,30.09,ESE,113,0.0,3.0,63,0.00,,,0.00,weatherlink.com 1.10,2013-05-04 03:56:00,